Погода в Кендже-Кулаке

Россия / Ставропольский край     45°28′02″N   43°48′47″E
темп.,
°C
ветер,
м/с
пор.,
м/с
влажн.,
%
обл.,
%
осадки,
мм/ч
давл.,
гПа
погр.,
м
21 апреля, ср
ср2100:00+13зсз41090100 0.7 1012273
03:00+13зсз3975100 1.1 1015306
06:00+11сз41078100 0.2 1016693
09:00+10зсз51286100 0.8 1018715
12:00+10зсз5985100 0.1 1019508
15:00+13сз4676100 0.4 1019502
18:00+12з1181100 0.0 102124
21:00+11юз2282100 0.0 102246
22 апреля, чт
чт2200:00+10зюз228385 0.0 102115
03:00+10сз1183100 0.0 102210
06:00+10сз1188100 0.4 102214
09:00+11ююв2388100 2.6 1023224
12:00+11ююв2287100 0.3 1024257
15:00+14ю1170100 0.6 1023578
18:00+13ю2277100 0.0 1022151
21:00+11юз0184100 0.0 102210
23 апреля, пт
пт2300:00+11з3592100 0.6 1022133
03:00+11з2392100 3.1 102262
06:00+10зюз3591100 1.2 1023145
09:00+11зюз3489100 2.1 1023212
12:00+15зюз446763 0.2 10221028
15:00+17сз455467 1.4 10211699
18:00+15ссв22637 0.0 102022
21:00+11ююв11653 0.0 102010
24 апреля, сб
сб2400:00+10ю227277 0.0 101911
03:00+11ю3372100 0.0 101831
06:00+11ю3579100 0.0 101898
09:00+16ююз576499 0.1 1018611
12:00+19зсз455483 0.9 10181460
15:00+18зсз585153 0.9 10181193
18:00+16сз366397 0.0 1018156
21:00+13зюз3583100 0.9 1020124
25 апреля, вс
вс2500:00+12сз2485100 0.5 1020116
03:00+11сз1192100 1.1 102043
06:00+11ссз3489100 0.3 1020274
09:00+9ссз3490100 4.1 1020318
12:00+8ссз4590100 2.5 1019378
15:00+8ссз5794100 4.8 1019489
18:00+8ссз5794100 0.5 1019505
21:00+7ссз4695100 0.8 1019391